COSMOS 1275 DEB

Satellite information

Favourite Embed

Satellite Type and Status

DEBRISIN ORBIT

Key statistics

Satellite COSMOS 1275 DEB at a glance.

Uptime

16104

Days in orbit

Revolutions

≈ 14.2

Per day

Orbit

LEO

Low Earth Orbit

Inclination

82.9

Latest

Satellite identification and parameters

Extended collection of information and parameters for COSMOS 1275 DEB.

Object identification

Identified? True

Debris? True

Object name: COSMOS 1275 DEB

International designator: 1981-053EU

Object number (NORAD): 13022

Object ID (CCSDS): 13022

Country: COMMONWEALTH OF INDEPENDENT STATES (CIS)

Current information (Y/N): Y

RCS size: SMALL

Orbital parameters

Period: 101.451 minutes

Inclination: 82.9155 deg

SMA: 7205.498 km

Apoapsis: 858.207 km

Periapsis: 796.518 km

RAAN: 179.0455 deg

Eccentricy: 0.0042807

Argument of periapsis: 325.5876 deg

Mean anomaly: 186.9481 deg

Mean motion: 14.19406519 rev/day

Mean motion (dot): 0.00000884 rev/day2

B* drag term: 0.00040896 1/REarth

Two-line elements (TLE)

Creation date: July 6, 2025, 6:05 p.m.

Reference frame: TEME

Reference center: EARTH

Epoch: July 6, 2025, 10:39 a.m. UTC

TLE line 0: 0 COSMOS 1275 DEB

TLE line 1: 1 13022U 81053EU 25187.44414194 .00000884 00000-0 40896-3 0 9999

TLE line 2: 2 13022 82.9155 179.0455 0042807 325.5876 186.9481 14.19406519236387

Live tracking on map

Real-time ground track for satellite COSMOS 1275 DEB.

In-orbit conjunctions

A list of the most updated potential collisions computed for object COSMOS 1275 DEB.

Target Orbit TCA Probability of collision Miss distance Type
DMSP 5D-2 F13 DEB SSO 2025-03-12 09:54:48 0.0003703265 59.0 (m) DEBRIS
NOAA 16 DEB SSO 2025-02-10 18:15:45 0.0002661523 70.0 (m) DEBRIS
CZ-6A DEB SSO 2025-01-30 15:47:58 0.0001752219 388.0 (m) DEBRIS
FENGYUN 1C DEB * SSO 2024-11-15 07:33:55 0.0001092326 154.0 (m) DEBRIS
FENGYUN 1C DEB SSO 2024-09-27 17:23:26 0.002642016 36.0 (m) DEBRIS

Associated space launch

Navigation satellite providing location information for the Tsiklon-B navigation system

COSMOS 1275 DEB was lifted into orbit during the mission ‘Kosmos-3M | Parus 27’, on board a Kosmos-3M space rocket.

The launch took place on June 4, 1981, 3:41 p.m. from 132/2.

For more information about the launch, click the button.

Launch to space Kosmos-3M | Parus 27
Kosmos-3M | Parus 27

Agency: N/A

Status: Launch Successful

Launch date: June 4, 1981, 3:41 p.m. UTC

Rocket: Kosmos-3M

Launch pad: 132/2

Location: Plesetsk Cosmodrome, Russian Federation

...

Latest news about this satellite

There are no fresh news available about this satellite. Check back as we update our databases every day.


Newsletter sign-up

Weekly statistics, charts and insights to help you stay on top of the space industry.